This is the latest recevied weather packets stored in our database for station/object XE1GMR. If no packets are shown the sender has not sent any weather packets the latest 10 day(s).
| Time | Temp. | Humidity | Pressure | Rain* | Wind** | Luminosity | Snow |
|---|---|---|---|---|---|---|---|
| 1778244509 | 17.78° C | 65% | 1121.7 hPa | 0 mm | - | 49 W/m² | - |
| 1778244206 | 17.22° C | 66% | 1121.5 hPa | 0 mm | - | 42 W/m² | - |
| 1778243904 | 16.67° C | 67% | 1121.5 hPa | 0 mm | - | 35 W/m² | - |
| 1778243603 | 16.67° C | 68% | 1121.5 hPa | 0 mm | - | 29 W/m² | - |
| 1778243298 | 16.67° C | 68% | 1121.6 hPa | 0 mm | - | 23 W/m² | - |
| 1778242995 | 16.67° C | 69% | 1121.4 hPa | 0 mm | - | 18 W/m² | - |
| 1778242693 | 16.67° C | 69% | 1121.5 hPa | 0 mm | - | 13 W/m² | - |
| 1778242391 | 16.11° C | 69% | 1121.5 hPa | 0 mm | - | 8 W/m² | - |
| 1778242088 | 16.67° C | 69% | 1121.4 hPa | 0 mm | - | 4 W/m² | - |
| 1778241786 | 16.67° C | 69% | 1121.6 hPa | 0 mm | - | 1 W/m² | - |
| 1778241483 | 16.67° C | 70% | 1121.5 hPa | 0 mm | - | 0 W/m² | - |
| 1778241181 | 16.67° C | 69% | 1121.1 hPa | 0 mm | - | 0 W/m² | - |
| 1778240877 | 16.67° C | 69% | 1121.3 hPa | 0 mm | - | 0 W/m² | - |
| 1778240574 | 17.22° C | 68% | 1121.6 hPa | 0 mm | - | 0 W/m² | - |
| 1778240270 | 17.22° C | 68% | 1121.4 hPa | 0 mm | - | 0 W/m² | - |
| 1778239969 | 17.22° C | 67% | 1121.2 hPa | 0 mm | - | 0 W/m² | - |
| 1778239665 | 17.22° C | 67% | 1121.5 hPa | 0 mm | - | 0 W/m² | - |
| 1778239362 | 17.22° C | 67% | 1121.3 hPa | 0 mm | - | 0 W/m² | - |
| 1778239058 | 17.22° C | 67% | 1121.2 hPa | 0 mm | - | 0 W/m² | - |
| 1778238756 | 17.78° C | 67% | 1121.2 hPa | 0 mm | - | 0 W/m² | - |
| 1778238453 | 17.78° C | 66% | 1121.3 hPa | 0 mm | - | 0 W/m² | - |
| 1778238150 | 17.78° C | 66% | 1121.1 hPa | 0 mm | - | 0 W/m² | - |
| 1778237850 | 17.22° C | 67% | 1121 hPa | 0 mm | - | 0 W/m² | - |
| 1778237547 | 17.22° C | 67% | 1121.1 hPa | 0 mm | - | 0 W/m² | - |
| 1778237244 | 17.78° C | 66% | 1121.2 hPa | 0 mm | - | 0 W/m² | - |
* Rain latest hour (hover to see other rain measurements)
** Current wind speed in m/s (hover to see current wind gust speed)